This demonstration page uses our WeatherBlox Daily Observations layout. Learn more.

Left ArrowRight Arrow

Hourly Observations for October 28, 2018

Temp ( °F °C ) Dew Point ( °F °C ) Humidity (%) Winds ( mph kmh ) Pressure ( in mb ) Visibility ( mi km ) Precip ( " mm )
12:54 am 00:54 Clear 58 14.4 45 7.2 62 62 NNW 15 24 29.93 1014 10 16.0934 0 0
1:54 am 01:54 Clear 57 13.9 42 5.6 58 58 NNW 14 22 29.96 1015 10 16.0934 0 0
2:54 am 02:54 Clear 54 12.2 40 4.4 59 59 NNW 18 30 29.99 1016 10 16.0934 0 0
3:54 am 03:54 Clear 50 10 38 3.3 63 63 NNW 13 20 30.02 1017 10 16.0934 0 0
4:54 am 04:54 Clear 48 8.9 37 2.8 66 66 NW 12 19 30.04 1017 10 16.0934 0 0
5:54 am 05:54 Clear 45 7.2 35 1.7 68 68 WNW 6 9 30.06 1018 10 16.0934 0 0
6:54 am 06:54 Clear 43 6.1 34 1.1 71 71 WNW 6 9 30.08 1019 10 16.0934 0 0
7:54 am 07:54 Sunny 42 5.6 34 1.1 73 73 WNW 9 15 30.11 1020 10 16.0934 0 0
8:54 am 08:54 Sunny 45 7.2 34 1.1 66 66 WNW 7 11 30.14 1021 10 16.0934 0 0
9:54 am 09:54 Sunny 50 10 33 0.6 52 52 NW 13 20 30.15 1021 10 16.0934 0 0
10:54 am 10:54 Sunny 56 13.3 33 0.6 42 42 NW 14 22 30.15 1021 10 16.0934 0 0
11:54 am 11:54 Sunny 60 15.6 31 -0.6 33 33 NNW 13 20 30.14 1021 10 16.0934 0 0
12:54 pm 12:54 Sunny 62 16.7 29 -1.7 29 29 NW 12 19 30.13 1020 10 16.0934 0 0
1:54 pm 13:54 Sunny 64 17.8 29 -1.7 27 27 WNW 10 17 30.1 1019 10 16.0934 0 0
2:54 pm 14:54 Sunny 65 18.3 29 -1.7 26 26 NW 10 17 30.09 1019 10 16.0934 0 0
3:54 pm 15:54 Sunny 67 19.4 30 -1.1 25 25 W 10 17 30.06 1018 10 16.0934 0 0
4:54 pm 16:54 Sunny 67 19.4 31 -0.6 26 26 WSW 9 15 30.06 1018 10 16.0934 0 0
5:54 pm 17:54 Sunny 65 18.3 32 0 29 29 WSW 8 13 30.06 1018 10 16.0934 0 0
6:54 pm 18:54 Clear 59 15 34 1.1 39 39 SW 6 9 30.06 1018 10 16.0934 0 0
7:54 pm 19:54 Clear 57 13.9 34 1.1 42 42 SW 6 9 30.07 1018 10 16.0934 0 0
8:54 pm 20:54 Clear 52 11.1 34 1.1 50 50 Calm 30.07 1018 10 16.0934 0 0
9:54 pm 21:54 Clear 47 8.3 34 1.1 61 61 N 8 13 30.08 1019 10 16.0934 0 0
10:54 pm 22:54 Clear 43 6.1 35 1.7 74 74 Calm 30.08 1019 10 16.0934 0 0
11:54 pm 23:54 Clear 47 8.3 35 1.7 63 63 Calm 30.07 1018 10 16.0934 0 0

Powered by AerisWeather